Location: Moscow
(55.7500°N, 37.5830°E)
Time: 06:47:51
(UTC+03:00)

Transit 2A - Pass Details

Date: 03 December 2021
Orbit: 591 x 967 km, 66.7° (Epoch: 17 January)

Event Time Altitude Azimuth Distance (km) Brightness Sun altitude
Exits shadow 07:31:02 - 316° (NW) 2,797 8.3 -8.7°
Reaches altitude 10° 07:31:20 10° 317° (NW) 2,695 8.2 -8.7°
Maximum altitude 07:37:33 52° 33° (NNE) 1,187 7.0 -7.9°
Drops below altitude 10° 07:43:45 10° 110° (ESE) 2,679 10.5 -7.1°
Sets 07:46:20 0° 115° (ESE) 3,594 12.0 -6.8°
